Location: Walnut Hills Mobile Home Park
(34.0445°N, 117.8184°W)
Time: 04:01:01
(UTC+00:00)

Cosmos 2360 Rocket - Pass Details

Date: 17 December 2025
Orbit: 835 x 842 km, 71.0° (Epoch: 21 January)

Event Time Altitude Azimuth Distance (km) Brightness Sun altitude
Exits shadow 14:16:16 - 292° (WNW) 2,560 4.0 -7.3°
Reaches altitude 10° 14:16:58 10° 286° (WNW) 2,444 3.9 -7.2°
Maximum altitude 14:19:08 12° 263° (W) 2,276 3.9 -6.8°
Drops below altitude 10° 14:21:19 10° 239° (WSW) 2,438 4.3 -6.3°
Sets 14:25:20 0° 211° (SSW) 3,366 5.3 -5.6°
